Flag for Austria Past Weather in Waidhofen an der Ybbs, Lower Austria, Austria — Yesterday and Last 2 Weeks

Now
64 °F

Mild.


Feels Like: 64 °F
Forecast: 51 / 75 °F
Wind: 1 mph from Southwest

Location: Amstetten

Current Time: Aug 30, 2016 at 9:26:34 AM

Latest Report: Aug 30, 2016 at 9:00 AM


Visibility: N/A

Pressure: 30.22 "Hg

Humidity: 92%

Dew Point: 62 °F

Location of Waidhofen an der YbbsLocation

Past Weather in Waidhofen an der Ybbs — Graph

°F

Waidhofen an der Ybbs Temperature Yesterday

Maximum temperature yesterday: 78 °F (at 2:00 PM)
Minimum temperature yesterday: 62 °F (at 11:00 PM)
Average temperature yesterday: 70 °F

High & Low Weather Summary for the Past Weeks

 TemperatureHumidityPressure
High88 °F (Aug 28, 5:00 PM)100% (Aug 16, 2:00 AM)30.42 "Hg (Aug 16, 2:00 AM)
Low51 °F (Aug 18, 6:00 AM)39% (Aug 18, 1:00 PM)29.78 "Hg (Aug 18, 5:00 PM)
Average67 °F79%30.07 "Hg
* Reported Aug 15 7:00 AM — Aug 30 7:00 AM, Waidhofen an der Ybbs, Weather by CustomWeather, © 2016

Note: Actual official high and low records may vary slightly from our data, if they occured in-between our weather recording intervals... More about our weather records

Advertising

Waidhofen an der Ybbs Weather History for the Previous 24 Hours

Scroll right to see more
 ConditionsComfort  
Time TempWeatherWind HumidityBarometerVisibility
7:00 AM
Tue, Aug 30
59 °FCool.No wind98%30.20 "HgN/A
6:00 AM58 °FCool.1 mph100%30.18 "HgN/A
5:00 AM58 °FCool.1 mph98%30.18 "HgN/A
4:00 AM60 °FCool.1 mph97%30.16 "HgN/A
3:00 AM61 °FCool.1 mph96%30.16 "HgN/A
2:00 AM61 °FCool.1 mph96%30.17 "HgN/A
1:00 AM62 °FCool.1 mph96%30.16 "HgN/A
12:00 AM63 °FMild.1 mph94%30.16 "HgN/A
11:00 PM
Mon, Aug 29
62 °FMild.1 mph95%30.16 "HgN/A
10:00 PM65 °FMild.1 mph89%30.14 "HgN/A
9:00 PM66 °FMild.1 mph88%30.12 "HgN/A
8:00 PM67 °FMild.1 mph88%30.10 "HgN/A
7:00 PM69 °FMild.2 mph82%30.09 "HgN/A
6:00 PM69 °FMild.2 mph90%30.09 "HgN/A
5:00 PM71 °FMild.3 mph84%30.07 "HgN/A
4:00 PM74 °FMild.2 mph68%30.07 "HgN/A
3:00 PM74 °FMild.3 mph67%30.06 "HgN/A
2:00 PM78 °FWarm.3 mph60%30.05 "HgN/A
1:00 PM78 °FWarm.3 mph59%30.05 "HgN/A
12:00 PM76 °FMild.3 mph60%30.06 "HgN/A
11:00 AM76 °FMild.5 mph64%30.05 "HgN/A
10:00 AM72 °FMild.3 mph77%30.06 "HgN/A
9:00 AM69 °FMild.2 mph79%30.06 "HgN/A
Weather by CustomWeather, © 2016

See weather overviewHow to use our weather pages